Showing default

TIANMU-1 22, 58663

Orbit data source: Space-Track

TIANMU-1 22, 58663 is a payload satellite owned by Hangtian Tianmu (CN) in SSO that was launched on Wed, 27 Dec 2023 UTC via a KUAIZHOU-1A launch vehicle from the Jiuquan Satellite Launch Center, China (JSC). Payload-class satellites include a variety of spacecraft equipped with specific instruments for various scientific and technological missions. These include communications satellites like Starlink; space stations such as the ISS; scientific satellites like the Hubble; Earth observation satellites from companies like Planet Labs, Umbra, and HawkEye 360; GPS; miniature CubeSats for education and research; and military/defense satellites.

Loading next visibility...
Identifier
58663, 2023-208D
Orbit
SSO
Country
Flag of CNCN / PRC
Related business
Manufacturer
Hangtian Tianmu
Mission
Operational Commercial Weather
Bus & Motor
TIANMU, Unknown motor
Mass
50 kg wet, ~50 kg dry
Launch date (UTC)
2023-12-27 (2 years ago)
Launch vehicle
KUAIZHOU-1A
Launch site
Jiuquan Satellite Launch Center, China (JSC)
Object type
Payload
Rocket body
Debris
Shape & HBR
Box, 0.8 m
Radar Cross Section
2.000 m², Medium (>0.1 m² and < 1m²)

Expand to show TLE details & history
Last TLE update: 22 hours ago

TLE from 22 hours ago
0 TIANMU-1 22
1 58663U 23208D   26172.51689759  .00005940  00000-0  20026-3 0  9992
2 58663  97.4501 288.7713 0002791 346.8495  13.2672 15.31108395137996
Epoch: 2026-06-21T12:24Z
TLE epoch observation values (Epoch: 2026-06-21T12:24:19.951Z)
Latitude
-0.00012°
Longitude
-167.02785°
Altitude
473.747 km
Speed
7.63 km/s
True Right ascension
19h 15m 05s
True Declination
0° 00' 00"
Sunlit
Object was in full shadow at epoch
Visualization orbit readout
Latitude
Unknown
Longitude
Unknown
Altitude
Unknown
Speed
Unknown
Apparent Right ascension
Unknown
Apparent Declination
Unknown
Sunlit
N/A
Visualization observer readout
Local Sidereal Time
21:28:47
Azimuth
Unknown
Elevation
Unknown
Doppler factor
Unknown
Orbital elements
Apogee altitude
471.368 km
Perigee altitude
467.546 km
Semi-major axis
6,847.594 km
Eccentricity
0.00028
Inclination
97.4501°
RAAN
288.7713°
Arg. of periapsis
346.8495°
True anomaly
13.27454°
Mean anomaly
13.2672°
Eccentric anomaly
13.27087°
Mean motion
3.83033 °/min
Orbital period
93.99 mins
BSTAR
0.00020026
Loading maneuver chart data...
Computing Atmospheric mass density...
Loading historical data...
Loading historical data...
Loading historical data...
Loading historical data...
Loading historical data...
Loading historical data...
Loading historical data...
Other satellites on launch #208 in the year 2023 (2023-12-27 UTC)

Documentation

Showing up to 5 results
|